Find Hawk 12A

NORAD ID: 64623 Int'l Des: 2025-138 Owner: HE360 Country: US Constellation: hawkeye-360 operational
LEOCIRCULARRETROGRADESSO

現在のビュー

3D地球を読み込み中...

Hawk 12Aについて

説明を読み込み中...

次回通過

Passes for default location (London). Set your location on the main map for personalized predictions.

高度履歴

Loading altitude history...

軌道要素

1 64623U 25138C 26149.52066725 .00004169 00000-0 20771-3 0 9995
2 64623 97.4398 152.5940 0013389 195.5373 164.5451 15.18039620 51036
Epoch: May 29, 2026 • Age: 19 hours

現在のステータス

高度 528.1 km
速度 7.60 km/s
衛星直下点 59.92°N, 136.39°E
打ち上げ日 Jun 26, 2025
運用期間 0.9 years
タイプ other

技術仕様

分類 Payload
質量 31.00 kg
乾燥質量 30.00 kg
総質量 31.00 kg
長さ 0.45 m
直径 0.30 m
スパン 1.00 m
形状 Box + 2 pan
製造者 UTIAS
バスタイプ Hawk2G
フェーズステータス In Orbit
所有者/国 HE360/US

Most Searched